[[{"header":{"parameterUnit":"m.s-1","parameterCategory":1,"la1":30.2991,"la2":30.254,"lo1":-89.0895,"lo2":-89.0444,"dy":0.0017,"dx":0.0017,"nx":28,"ny":28,"refTime":"2024-08-14T03:00:00:Z","depth":0,"parameterNumber":2,"parameterNumberName":"U-component_of_WINDS"},"data":[0,0,0,0,0,0,0,0,0,0,0,0,0,0,0,0,0,0,0,0,0,0,0,0,0,0,0,0,0,0,0,0,0,0,0,0,0,0,0,0,0,0,0,0,0,0,0,0,0,0,0,0,0,0,0,0,0,0,-0.5573,-0.5572,0,-0.5534,-0.5534,-0.5533,-0.5511,-0.5511,-0.5511,-0.5511,-0.5471,-0.5471,-0.547,0,0,0,0,0,0,0,0,0,0,0,0,0,-0.5628,-0.5627,-0.5573,-0.5572,-0.5572,-0.5534,-0.5533,-0.5533,-0.5511,-0.5511,-0.5511,-0.5511,-0.5472,-0.5471,-0.5469,0,0,0,0,0,0,0,0,0,0,0,0,0,-0.5598,-0.5627,-0.5573,-0.5556,-0.5554,-0.5534,-0.5533,-0.5533,-0.5511,-0.5511,-0.5511,-0.5511,-0.5472,-0.5471,-0.5469,-0.5462,0,0,-0.5465,-0.5464,0,0,0,0,0,0,0,0,-0.56,-0.5596,-0.5559,-0.5557,-0.5555,-0.5527,-0.5539,-0.5509,-0.5511,-0.5528,-0.5511,-0.5511,-0.549,-0.5487,-0.548,-0.5461,-0.5459,-0.5465,-0.5464,-0.5463,-0.5463,0,0,0,0,0,0,0,-0.5602,-0.5598,-0.5557,-0.5559,-0.5556,-0.5551,-0.5547,-0.5533,-0.551,-0.5526,-0.5525,-0.552,-0.5489,-0.5482,-0.5479,-0.5458,-0.5465,-0.5463,-0.5462,-0.5462,-0.5431,-0.5431,0,0,0,0,0,0,-0.5607,-0.56,-0.5559,-0.5556,-0.5578,-0.555,-0.5545,-0.5536,-0.551,-0.5506,-0.552,-0.5519,-0.5484,-0.5481,-0.5478,-0.5468,-0.5463,-0.5462,-0.5461,-0.5431,-0.5431,-0.5431,0,0,0,0,0,0,-0.5608,-0.5603,-0.556,-0.5577,-0.5572,-0.5549,-0.554,-0.5536,-0.5528,-0.5506,-0.5501,-0.5517,-0.5484,-0.548,-0.5466,-0.5466,-0.5461,-0.546,-0.5431,-0.5431,-0.5431,-0.5448,0,0,0,0,0,0,-0.561,-0.5604,-0.5601,-0.5578,-0.5571,-0.555,-0.554,-0.5535,-0.5526,-0.5524,-0.5501,-0.5498,-0.5484,-0.5469,-0.5465,-0.5464,-0.5459,-0.5431,-0.5431,-0.5431,-0.5447,-0.5449,-0.545,0,0,0,0,0,-0.5612,-0.5607,-0.5601,-0.5596,-0.5567,-0.555,-0.5546,-0.553,-0.5526,-0.5523,-0.5508,-0.5498,-0.5467,-0.5467,-0.5463,-0.5462,-0.5431,-0.5431,-0.5431,-0.5447,-0.5448,-0.545,0,0,0,0,0,0,-0.5632,-0.5604,-0.5597,-0.5584,-0.5569,-0.5546,-0.5542,-0.5532,-0.5518,-0.5517,-0.5498,-0.5493,-0.5481,-0.547,-0.5471,-0.5454,-0.5448,-0.5447,-0.5461,-0.5463,-0.5464,-0.5467,-0.5457,0,0,0,0,0,-0.5634,-0.5623,-0.5599,-0.5591,-0.5584,-0.5564,-0.5556,-0.5545,-0.5529,-0.5522,-0.5507,-0.5492,-0.5478,-0.547,-0.5456,-0.5446,-0.544,-0.5443,-0.5444,-0.5445,-0.5444,-0.5438,-0.5439,-0.5432,-0.5432,-0.5432,0,0,-0.564,-0.5624,-0.5618,-0.5595,-0.5582,-0.557,-0.5559,-0.5547,-0.5538,-0.5521,-0.5507,-0.5495,-0.5477,-0.5465,-0.5459,-0.5455,-0.5445,-0.5445,-0.5446,-0.5445,-0.5438,-0.5439,-0.544,-0.5432,-0.5432,-0.5432,0,0,-0.5645,-0.5632,-0.5623,-0.561,-0.5591,-0.5578,-0.5576,-0.5554,-0.5545,-0.5531,-0.5517,-0.5507,-0.5484,-0.5472,-0.5462,-0.5462,-0.5453,-0.5459,-0.5465,-0.5459,-0.5459,-0.546,-0.546,-0.546,-0.5458,-0.5458,-0.5458,0,-0.5656,-0.5637,-0.562,-0.5609,-0.5599,-0.5582,-0.5574,-0.5562,-0.5539,-0.5533,-0.5529,-0.5501,-0.5487,-0.5472,-0.5472,-0.5465,-0.5462,-0.5461,-0.5461,-0.5461,-0.5461,-0.5461,-0.5461,-0.5459,-0.5459,-0.5459,-0.5459,0,-0.565,-0.5638,-0.5634,-0.5612,-0.5601,-0.5592,-0.5573,-0.5565,-0.5554,-0.5542,-0.5528,-0.5511,-0.5494,-0.5489,-0.5479,-0.5473,-0.5471,-0.5464,-0.5458,-0.5463,-0.5462,-0.5462,-0.546,-0.546,-0.546,-0.546,0,0,-0.5667,-0.5636,-0.5634,-0.5624,-0.5601,-0.5591,-0.5581,-0.5564,-0.5557,-0.5542,-0.5532,-0.5514,-0.5507,-0.5497,-0.5485,-0.548,-0.5481,-0.5474,-0.5473,-0.5476,-0.5472,-0.5478,-0.5478,-0.5474,-0.5474,-0.5474,-0.5474,0,-0.5669,-0.5649,-0.5633,-0.5619,-0.5607,-0.5591,-0.5582,-0.5567,-0.5554,-0.5543,-0.5529,-0.5516,-0.5509,-0.5502,-0.5497,-0.5482,-0.548,-0.5482,-0.5466,-0.5465,-0.547,-0.5477,-0.5483,-0.5483,-0.5474,-0.5474,-0.5474,0,-0.5668,-0.5653,-0.5638,-0.5616,-0.5611,-0.5602,-0.5585,-0.5575,-0.5557,-0.5549,-0.5537,-0.5525,-0.5513,-0.5508,-0.5492,-0.5493,-0.5485,-0.5477,-0.5477,-0.5475,-0.547,-0.5475,-0.5483,-0.5483,-0.5473,-0.5473,-0.5473,0,-0.5682,-0.5658,-0.5646,-0.5637,-0.5612,-0.5606,-0.5595,-0.5578,-0.5569,-0.5554,-0.5548,-0.5532,-0.5523,-0.5511,-0.5495,-0.5493,-0.548,-0.5474,-0.5473,-0.5473,-0.5471,-0.5471,-0.5477,-0.5466,-0.5466,-0.5466,-0.5466,0,-0.5685,-0.5677,-0.5651,-0.5644,-0.5633,-0.5615,-0.5606,-0.5593,-0.5578,-0.5568,-0.5553,-0.5544,-0.5523,-0.5512,-0.5499,-0.5487,-0.5483,-0.5476,-0.5473,-0.5478,-0.5478,-0.5472,-0.5472,-0.5466,-0.5466,-0.5466,-0.5466,0,-0.5699,-0.5682,-0.5667,-0.5644,-0.5637,-0.5631,-0.5611,-0.5603,-0.559,-0.5577,-0.5573,-0.5553,-0.5538,-0.5521,-0.5501,-0.5493,-0.5482,-0.5477,-0.5488,-0.5486,-0.5486,-0.5486,-0.5488,-0.5487,-0.5477,-0.5477,-0.5477,0,-0.5702,-0.5695,-0.5671,-0.5663,-0.5652,-0.5639,-0.563,-0.5612,-0.5602,-0.5582,-0.5576,-0.5561,-0.5547,-0.5525,-0.5508,-0.5493,-0.5488,-0.5489,-0.5485,-0.549,-0.5487,-0.5488,-0.5487,-0.549,-0.5491,-0.5491,-0.5491,0,-0.5711,-0.5702,-0.5688,-0.5672,-0.566,-0.5647,-0.5632,-0.5626,-0.5605,-0.5595,-0.558,-0.557,-0.5549,-0.5534,-0.5516,-0.5505,-0.5495,-0.5492,-0.5491,-0.5496,-0.5502,-0.5499,-0.5491,-0.5492,-0.5492,-0.5492,-0.5492,-0.5492,-0.5719,-0.5712,-0.5693,-0.5679,-0.5666,-0.5652,-0.5644,-0.5629,-0.5616,-0.5598,-0.5588,-0.5573,-0.5556,-0.5531,-0.552,-0.5508,-0.5505,-0.5503,-0.5503,-0.5503,-0.5504,-0.5504,-0.5505,-0.5505,-0.5505,-0.5505,-0.5505,0,-0.5726,-0.5714,-0.57,-0.568,-0.5668,-0.5659,-0.5642,-0.5633,-0.562,-0.5605,-0.5592,-0.5574,-0.5559,-0.5541,-0.5525,-0.5519,-0.5514,-0.5515,-0.5516,-0.5513,-0.5508,-0.5511,-0.552,-0.552,-0.552,-0.552,-0.552,-0.552,-0.5729,-0.5716,-0.5705,-0.5686,-0.5673,-0.5658,-0.5649,-0.5637,-0.5624,-0.5605,-0.5593,-0.5581,-0.5565,-0.5547,-0.5533,-0.5528,-0.5523,-0.5526,-0.5519,-0.5515,-0.5514,-0.5512,-0.5515,-0.5525,-0.5525,-0.5526,-0.5526,-0.5526]},{"header":{"parameterUnit":"m.s-1","parameterCategory":1,"la1":30.2991,"la2":30.254,"lo1":-89.0895,"lo2":-89.0444,"dy":0.0017,"dx":0.0017,"nx":28,"ny":28,"refTime":"2024-08-14T03:00:00:Z","depth":0,"parameterNumber":3,"parameterNumberName":"V-component_of_WINDS"},"data":[0,0,0,0,0,0,0,0,0,0,0,0,0,0,0,0,0,0,0,0,0,0,0,0,0,0,0,0,0,0,0,0,0,0,0,0,0,0,0,0,0,0,0,0,0,0,0,0,0,0,0,0,0,0,0,0,0,0,2.8307,2.8306,0,2.8263,2.8262,2.8262,2.8249,2.8249,2.825,2.825,2.8199,2.8197,2.8196,0,0,0,0,0,0,0,0,0,0,0,0,0,2.8376,2.8375,2.8307,2.8306,2.8306,2.8263,2.8262,2.8262,2.8249,2.8249,2.825,2.825,2.82,2.8198,2.8196,0,0,0,0,0,0,0,0,0,0,0,0,0,2.834,2.8374,2.8307,2.8295,2.8293,2.8263,2.8262,2.8261,2.8249,2.8249,2.825,2.825,2.82,2.8198,2.8195,2.8173,0,0,2.8188,2.8187,0,0,0,0,0,0,0,0,2.8342,2.8338,2.8297,2.8295,2.8294,2.8262,2.8268,2.8231,2.8249,2.8266,2.825,2.825,2.8219,2.8215,2.8206,2.817,2.8168,2.8188,2.8186,2.8185,2.8185,0,0,0,0,0,0,0,2.8345,2.8339,2.8289,2.8296,2.8294,2.829,2.8285,2.8261,2.824,2.8264,2.8263,2.8258,2.8218,2.8208,2.8205,2.8168,2.8188,2.8186,2.8184,2.8183,2.8111,2.811,0,0,0,0,0,0,2.835,2.8342,2.8291,2.8288,2.832,2.8288,2.8283,2.8272,2.8241,2.8237,2.8258,2.8258,2.8212,2.8207,2.8203,2.8174,2.8185,2.8183,2.8182,2.8111,2.8111,2.811,0,0,0,0,0,0,2.8352,2.8346,2.8292,2.8315,2.8307,2.8287,2.8274,2.8271,2.8261,2.8236,2.8232,2.8252,2.8212,2.8206,2.8181,2.8172,2.8182,2.818,2.8112,2.8111,2.8111,2.8117,0,0,0,0,0,0,2.8354,2.8346,2.8339,2.8315,2.8306,2.8273,2.8273,2.8269,2.8257,2.8257,2.8229,2.8225,2.8212,2.8184,2.8178,2.8169,2.8178,2.8113,2.8112,2.8111,2.8117,2.8117,2.8116,0,0,0,0,0,2.8356,2.8341,2.8338,2.8332,2.8297,2.8272,2.8267,2.8254,2.8257,2.8248,2.8232,2.8226,2.8174,2.8182,2.8175,2.8165,2.8113,2.8112,2.8111,2.8118,2.8117,2.8116,0,0,0,0,0,0,2.8362,2.8337,2.8334,2.8311,2.8294,2.827,2.8259,2.8254,2.8234,2.8234,2.8217,2.8211,2.8187,2.8173,2.8182,2.8141,2.8143,2.8141,2.8151,2.815,2.8149,2.8152,2.8176,0,0,0,0,0,2.8361,2.8345,2.8324,2.8305,2.8297,2.828,2.8269,2.826,2.8241,2.8233,2.8216,2.8196,2.8175,2.8162,2.8141,2.8116,2.8109,2.8105,2.8104,2.8104,2.8102,2.8087,2.8084,2.8107,2.8107,2.8107,0,0,2.8358,2.8343,2.8333,2.8306,2.8292,2.8275,2.8274,2.8255,2.8241,2.823,2.8205,2.8192,2.8168,2.8143,2.8131,2.8131,2.8094,2.8103,2.8102,2.81,2.8085,2.8083,2.8081,2.8106,2.8106,2.8106,0,0,2.8344,2.8331,2.8315,2.8301,2.828,2.8269,2.8265,2.8242,2.8233,2.8209,2.82,2.8183,2.8147,2.8131,2.8118,2.8099,2.8092,2.8093,2.8088,2.8074,2.8072,2.807,2.8063,2.806,2.8091,2.8091,2.8091,0,2.8343,2.8317,2.8306,2.8288,2.8276,2.8268,2.825,2.8236,2.8209,2.82,2.8202,2.8158,2.8141,2.8112,2.8107,2.8097,2.8091,2.8095,2.8074,2.8072,2.807,2.8063,2.806,2.8091,2.8091,2.8091,2.8091,0,2.8316,2.8299,2.8288,2.8264,2.8251,2.8233,2.8218,2.8205,2.8198,2.8186,2.8161,2.8141,2.8117,2.8109,2.8101,2.8078,2.8079,2.8077,2.8079,2.8068,2.8061,2.8058,2.8091,2.8091,2.8091,2.8091,0,0,2.8304,2.8275,2.8271,2.8261,2.8238,2.8223,2.8204,2.8183,2.8172,2.8154,2.8137,2.8108,2.8106,2.8092,2.8082,2.8069,2.8055,2.8069,2.8068,2.8066,2.8027,2.8029,2.8026,2.8051,2.805,2.8049,2.8029,0,2.8286,2.8255,2.8245,2.8217,2.8201,2.8193,2.8176,2.8159,2.8148,2.8131,2.8117,2.8097,2.8096,2.8088,2.8075,2.8059,2.8046,2.8061,2.8033,2.8032,2.8039,2.8022,2.8023,2.8005,2.8026,2.8026,2.8025,0,2.8261,2.8245,2.8217,2.8197,2.8189,2.8175,2.8154,2.8138,2.8119,2.8111,2.8096,2.8087,2.8066,2.807,2.8039,2.8049,2.8037,2.8028,2.8027,2.8023,2.8028,2.8017,2.7998,2.7996,2.8021,2.8021,2.8022,0,2.8255,2.8225,2.8205,2.8196,2.8172,2.8162,2.8151,2.8132,2.8119,2.8101,2.8092,2.807,2.8058,2.8041,2.8026,2.8031,2.7997,2.8,2.7989,2.7989,2.7981,2.7982,2.796,2.7975,2.7975,2.7975,2.7975,0,2.8236,2.8219,2.8202,2.8189,2.8169,2.8157,2.8137,2.8126,2.8109,2.8093,2.8084,2.8068,2.805,2.8032,2.802,2.7997,2.7991,2.7983,2.798,2.7984,2.7985,2.7975,2.7976,2.7974,2.7975,2.7975,2.7975,0,2.8224,2.8212,2.8189,2.8169,2.8163,2.815,2.8131,2.8118,2.8107,2.8086,2.808,2.8062,2.804,2.8024,2.7995,2.7987,2.7962,2.7959,2.7969,2.7967,2.7957,2.7958,2.7928,2.7923,2.7942,2.7942,2.7941,0,2.8213,2.82,2.8179,2.8168,2.8158,2.8141,2.8129,2.8116,2.8103,2.8081,2.8069,2.8048,2.8029,2.7994,2.7977,2.7955,2.7951,2.7942,2.7947,2.7951,2.795,2.7951,2.7949,2.7941,2.7941,2.794,2.794,0,2.8193,2.8188,2.8172,2.8154,2.814,2.8125,2.8109,2.81,2.8085,2.8071,2.8049,2.8035,2.8007,2.7985,2.7961,2.7948,2.7941,2.7939,2.7935,2.7938,2.7944,2.794,2.7966,2.794,2.794,2.794,2.794,2.794,2.8181,2.8169,2.8153,2.8135,2.8122,2.8108,2.8095,2.8082,2.8065,2.8042,2.8035,2.8013,2.7993,2.7961,2.7948,2.7929,2.7929,2.7924,2.7922,2.7921,2.7921,2.7949,2.7925,2.7925,2.7925,2.7925,2.7925,0,2.8161,2.815,2.8134,2.8113,2.8099,2.8096,2.8079,2.8066,2.8048,2.8031,2.8014,2.7989,2.7968,2.7949,2.7927,2.7915,2.7911,2.7909,2.791,2.7906,2.7922,2.7928,2.7913,2.7913,2.7913,2.7913,2.7913,2.7913,2.8148,2.8128,2.8122,2.8095,2.8083,2.8063,2.8053,2.804,2.8026,2.8,2.7983,2.7972,2.7954,2.793,2.791,2.7905,2.7896,2.7895,2.7889,2.7904,2.7905,2.7907,2.7912,2.7894,2.7894,2.7875,2.7875,2.7875]}]]